5NAAT WAGS-WIKK

Flight info

Callsign 5NAAT
Flight time N/A
Altitude 6000
Route ENPIN W35 PNK W23 LIANA
Aircraft BE36/L-BDFGLORY/S

Departure

Time N/A
Airport Sampit (H.Asan) Airport (WAGS)

Arrival

Time 2026-04-11 14:27
Airport Depati Amir Airport (WIKK)
Time Latitude Longitude Altitude Speed Heading
2026-04-11 12:29 -2.44537 111.31266 5856 ft 117 kts 271°
2026-04-11 12:29 -2.44513 111.30492 5953 ft 108 kts 270°
2026-04-11 12:29 -2.44486 111.29743 5954 ft 106 kts 271°
2026-04-11 12:29 -2.44461 111.28944 5977 ft 126 kts 271°
2026-04-11 12:30 -2.44427 111.28006 5982 ft 142 kts 271°
2026-04-11 12:30 -2.44388 111.26977 5979 ft 153 kts 271°
2026-04-11 12:30 -2.44347 111.25887 5975 ft 160 kts 271°
2026-04-11 12:30 -2.44306 111.24764 5976 ft 164 kts 271°
2026-04-11 12:31 -2.44264 111.23617 5975 ft 166 kts 271°
2026-04-11 12:31 -2.44222 111.22459 5977 ft 167 kts 271°
2026-04-11 12:31 -2.44181 111.21296 5974 ft 168 kts 271°
2026-04-11 12:31 -2.44138 111.20125 5979 ft 168 kts 271°
2026-04-11 12:32 -2.44096 111.18953 5980 ft 169 kts 271°
2026-04-11 12:32 -2.44054 111.17783 5979 ft 169 kts 271°
2026-04-11 12:32 -2.44012 111.16609 5979 ft 169 kts 271°
2026-04-11 12:32 -2.43970 111.15434 5976 ft 169 kts 271°
2026-04-11 12:33 -2.43928 111.14257 5977 ft 169 kts 271°
2026-04-11 12:33 -2.43885 111.13085 5977 ft 169 kts 271°
2026-04-11 12:33 -2.43843 111.11910 5976 ft 169 kts 271°
2026-04-11 12:33 -2.43801 111.10751 5976 ft 169 kts 271°
2026-04-11 12:34 -2.43759 111.09576 5977 ft 169 kts 271°
2026-04-11 12:34 -2.43717 111.08401 5978 ft 169 kts 271°
2026-04-11 12:34 -2.43674 111.07228 5978 ft 169 kts 271°
2026-04-11 12:34 -2.43632 111.06054 5981 ft 169 kts 271°
2026-04-11 12:35 -2.43589 111.04880 5976 ft 169 kts 271°
2026-04-11 12:35 -2.43547 111.03704 5978 ft 169 kts 271°
2026-04-11 12:35 -2.43505 111.02528 5977 ft 169 kts 271°
2026-04-11 12:35 -2.43462 111.01352 5979 ft 169 kts 271°
2026-04-11 12:36 -2.43419 111.00171 5973 ft 169 kts 271°
2026-04-11 12:36 -2.43391 110.99393 5976 ft 169 kts 271°
2026-04-11 12:36 -2.43335 110.97839 5976 ft 169 kts 271°
2026-04-11 12:36 -2.43293 110.96669 5977 ft 169 kts 271°
2026-04-11 12:37 -2.43250 110.95488 5978 ft 169 kts 271°
2026-04-11 12:37 -2.43208 110.94315 5978 ft 169 kts 271°
2026-04-11 12:37 -2.43166 110.93136 5977 ft 169 kts 271°
2026-04-11 12:37 -2.43123 110.91971 5981 ft 169 kts 271°
2026-04-11 12:38 -2.43080 110.90794 5980 ft 169 kts 271°
2026-04-11 12:38 -2.43038 110.89618 5981 ft 169 kts 271°
2026-04-11 12:38 -2.43010 110.88836 5979 ft 169 kts 271°
2026-04-11 12:38 -2.42967 110.87655 5977 ft 169 kts 271°
2026-04-11 12:39 -2.42924 110.86479 5976 ft 169 kts 271°
2026-04-11 12:39 -2.42868 110.84924 5976 ft 169 kts 271°
2026-04-11 12:39 -2.42839 110.84142 5976 ft 169 kts 271°
2026-04-11 12:39 -2.42797 110.82955 5978 ft 169 kts 271°
2026-04-11 12:40 -2.42755 110.81789 5979 ft 169 kts 271°
2026-04-11 12:40 -2.42712 110.80613 5977 ft 169 kts 271°
2026-04-11 12:40 -2.42670 110.79438 5980 ft 169 kts 271°
2026-04-11 12:40 -2.42627 110.78268 5981 ft 169 kts 271°
2026-04-11 12:41 -2.42584 110.77094 5985 ft 169 kts 271°
2026-04-11 12:41 -2.42542 110.75920 5979 ft 168 kts 271°
2026-04-11 12:41 -2.42500 110.74768 5980 ft 168 kts 271°
2026-04-11 12:41 -2.42457 110.73597 5984 ft 169 kts 271°
2026-04-11 12:42 -2.42415 110.72419 5980 ft 169 kts 271°
2026-04-11 12:42 -2.42372 110.71246 5982 ft 169 kts 271°
2026-04-11 12:42 -2.42329 110.70070 5981 ft 169 kts 271°
2026-04-11 12:43 -2.42244 110.67740 5978 ft 168 kts 271°
2026-04-11 12:43 -2.42202 110.66553 5981 ft 168 kts 271°
2026-04-11 12:43 -2.42160 110.65398 5983 ft 168 kts 271°
2026-04-11 12:43 -2.42117 110.64226 5978 ft 168 kts 271°
2026-04-11 12:44 -2.42074 110.63058 5981 ft 168 kts 271°
2026-04-11 12:44 -2.42032 110.61886 5980 ft 169 kts 271°
2026-04-11 12:44 -2.41989 110.60712 5981 ft 169 kts 271°
2026-04-11 12:44 -2.41947 110.59538 5983 ft 168 kts 271°
2026-04-11 12:45 -2.41904 110.58366 5982 ft 169 kts 271°
2026-04-11 12:45 -2.41861 110.57194 5982 ft 168 kts 271°
2026-04-11 12:45 -2.41819 110.56037 5981 ft 168 kts 271°
2026-04-11 12:45 -2.41776 110.54862 5978 ft 168 kts 271°
2026-04-11 12:46 -2.41733 110.53693 5978 ft 169 kts 271°
2026-04-11 12:46 -2.41691 110.52520 5979 ft 169 kts 271°
2026-04-11 12:46 -2.41648 110.51346 5978 ft 169 kts 271°
2026-04-11 12:46 -2.41605 110.50173 5980 ft 169 kts 271°
2026-04-11 12:47 -2.41563 110.48997 5979 ft 168 kts 271°
2026-04-11 12:47 -2.41520 110.47841 5976 ft 168 kts 271°
2026-04-11 12:47 -2.41477 110.46670 5979 ft 168 kts 271°
2026-04-11 12:47 -2.41435 110.45502 5977 ft 168 kts 271°
2026-04-11 12:48 -2.41392 110.44331 5977 ft 168 kts 271°
2026-04-11 12:48 -2.41349 110.43162 5978 ft 168 kts 271°
2026-04-11 12:48 -2.41306 110.41992 5980 ft 168 kts 271°
2026-04-11 12:48 -2.41264 110.40823 5978 ft 168 kts 271°
2026-04-11 12:49 -2.41221 110.39652 5978 ft 168 kts 271°
2026-04-11 12:49 -2.41178 110.38482 5979 ft 168 kts 271°
2026-04-11 12:49 -2.41135 110.37307 5978 ft 168 kts 271°
2026-04-11 12:49 -2.41093 110.36139 5977 ft 168 kts 271°
2026-04-11 12:50 -2.41050 110.34981 5977 ft 168 kts 271°
2026-04-11 12:50 -2.41008 110.33813 5980 ft 168 kts 271°
2026-04-11 12:50 -2.40965 110.32643 5978 ft 168 kts 271°
2026-04-11 12:50 -2.40922 110.31475 5979 ft 168 kts 271°
2026-04-11 12:51 -2.40879 110.30307 5985 ft 168 kts 271°
2026-04-11 12:51 -2.40837 110.29152 5981 ft 168 kts 271°
2026-04-11 12:51 -2.40794 110.27982 5978 ft 168 kts 271°
2026-04-11 12:51 -2.40751 110.26809 5979 ft 168 kts 271°
2026-04-11 12:52 -2.40708 110.25642 5978 ft 168 kts 271°
2026-04-11 12:52 -2.40665 110.24474 5976 ft 168 kts 271°
2026-04-11 12:52 -2.40623 110.23306 5977 ft 168 kts 271°
2026-04-11 12:52 -2.40580 110.22149 5980 ft 168 kts 271°
2026-04-11 12:53 -2.40537 110.20975 5979 ft 168 kts 271°
2026-04-11 12:53 -2.40494 110.19804 5978 ft 168 kts 271°
2026-04-11 12:53 -2.40451 110.18636 5983 ft 168 kts 271°
2026-04-11 12:53 -2.40409 110.17478 5978 ft 168 kts 271°
2026-04-11 12:54 -2.40366 110.16312 5980 ft 167 kts 271°
2026-04-11 12:54 -2.40323 110.15146 5979 ft 168 kts 271°
2026-04-11 12:54 -2.40280 110.13981 5979 ft 168 kts 271°
2026-04-11 12:54 -2.40237 110.12814 5977 ft 168 kts 271°
2026-04-11 12:55 -2.40195 110.11651 5979 ft 167 kts 271°
2026-04-11 12:55 -2.40152 110.10482 5977 ft 167 kts 271°
2026-04-11 12:55 -2.40110 110.09330 5978 ft 167 kts 271°
2026-04-11 12:55 -2.40066 110.08165 5979 ft 167 kts 271°
2026-04-11 12:56 -2.40024 110.07001 5982 ft 168 kts 271°
2026-04-11 12:56 -2.39980 110.05830 5980 ft 168 kts 271°
2026-04-11 12:56 -2.39938 110.04668 5978 ft 167 kts 271°
2026-04-11 12:56 -2.39895 110.03503 5980 ft 167 kts 271°
2026-04-11 12:57 -2.39852 110.02334 5984 ft 167 kts 271°
2026-04-11 12:57 -2.39810 110.01186 5982 ft 167 kts 271°
2026-04-11 12:57 -2.39767 110.00029 5981 ft 167 kts 271°
2026-04-11 12:57 -2.39724 109.98862 5977 ft 167 kts 270°
2026-04-11 12:58 -2.39682 109.97701 5976 ft 167 kts 271°
2026-04-11 12:58 -2.39638 109.96540 5975 ft 167 kts 271°
2026-04-11 12:58 -2.39596 109.95378 5978 ft 167 kts 270°
2026-04-11 12:58 -2.39553 109.94233 5980 ft 167 kts 271°
2026-04-11 12:59 -2.39510 109.93070 5980 ft 167 kts 270°
2026-04-11 12:59 -2.39467 109.91913 5979 ft 166 kts 270°
2026-04-11 12:59 -2.39425 109.90758 5980 ft 166 kts 271°
2026-04-11 12:59 -2.39383 109.89608 5979 ft 167 kts 271°
2026-04-11 13:00 -2.39340 109.88439 5977 ft 167 kts 271°
2026-04-11 13:00 -2.39296 109.87283 5979 ft 167 kts 270°
2026-04-11 13:00 -2.39255 109.86140 5978 ft 166 kts 270°
2026-04-11 13:00 -2.39212 109.84991 5974 ft 165 kts 271°
2026-04-11 13:01 -2.39170 109.83852 5975 ft 163 kts 270°
2026-04-11 13:01 -2.39087 109.81586 5976 ft 162 kts 271°
2026-04-11 13:01 -2.39044 109.80460 5979 ft 162 kts 271°
2026-04-11 13:02 -2.39003 109.79334 5978 ft 163 kts 271°
2026-04-11 13:02 -2.38962 109.78200 5980 ft 163 kts 270°
2026-04-11 13:02 -2.38919 109.77078 5982 ft 163 kts 271°
2026-04-11 13:02 -2.38878 109.75944 5985 ft 163 kts 270°
2026-04-11 13:03 -2.38836 109.74810 5986 ft 163 kts 271°
2026-04-11 13:03 -2.38794 109.73672 5985 ft 163 kts 271°
2026-04-11 13:03 -2.38752 109.72551 5986 ft 163 kts 271°
2026-04-11 13:03 -2.38710 109.71418 5983 ft 163 kts 271°
2026-04-11 13:04 -2.38668 109.70287 5982 ft 163 kts 271°
2026-04-11 13:04 -2.38626 109.69152 5983 ft 163 kts 271°
2026-04-11 13:04 -2.38584 109.68014 5982 ft 163 kts 271°
2026-04-11 13:04 -2.38541 109.66878 5984 ft 164 kts 270°
2026-04-11 13:05 -2.38500 109.65740 5981 ft 164 kts 271°
2026-04-11 13:05 -2.38458 109.64617 5986 ft 163 kts 271°
2026-04-11 13:05 -2.38416 109.63467 5985 ft 163 kts 271°
2026-04-11 13:05 -2.38374 109.62348 5986 ft 164 kts 271°
2026-04-11 13:06 -2.38331 109.61203 5983 ft 164 kts 271°
2026-04-11 13:06 -2.38289 109.60069 5987 ft 163 kts 271°
2026-04-11 13:06 -2.38247 109.58931 5983 ft 164 kts 271°
2026-04-11 13:06 -2.38205 109.57805 5987 ft 164 kts 271°
2026-04-11 13:07 -2.38163 109.56664 5980 ft 164 kts 271°
2026-04-11 13:07 -2.38120 109.55523 5984 ft 164 kts 271°
2026-04-11 13:07 -2.38078 109.54386 5988 ft 164 kts 271°
2026-04-11 13:07 -2.38036 109.53240 5984 ft 164 kts 271°
2026-04-11 13:08 -2.37993 109.52099 5984 ft 164 kts 271°
2026-04-11 13:08 -2.37951 109.50972 5986 ft 164 kts 271°
2026-04-11 13:08 -2.37908 109.49821 5980 ft 164 kts 271°
2026-04-11 13:08 -2.37867 109.48701 5979 ft 163 kts 271°
2026-04-11 13:09 -2.37824 109.47566 5986 ft 164 kts 270°
2026-04-11 13:09 -2.37782 109.46432 5980 ft 163 kts 271°
2026-04-11 13:09 -2.37740 109.45299 5982 ft 163 kts 271°
2026-04-11 13:09 -2.37698 109.44162 5983 ft 163 kts 271°
2026-04-11 13:10 -2.37655 109.43028 5980 ft 163 kts 271°
2026-04-11 13:10 -2.37613 109.41896 5982 ft 163 kts 271°
2026-04-11 13:10 -2.37571 109.40766 5981 ft 162 kts 271°
2026-04-11 13:10 -2.37529 109.39638 5984 ft 162 kts 271°
2026-04-11 13:11 -2.37488 109.38527 5985 ft 162 kts 271°
2026-04-11 13:11 -2.37446 109.37402 5986 ft 162 kts 271°
2026-04-11 13:11 -2.37404 109.36275 5985 ft 162 kts 271°
2026-04-11 13:11 -2.37361 109.35148 5980 ft 162 kts 271°
2026-04-11 13:12 -2.37319 109.34016 5984 ft 163 kts 270°
2026-04-11 13:12 -2.37277 109.32884 5980 ft 163 kts 271°
2026-04-11 13:12 -2.37235 109.31755 5982 ft 162 kts 271°
2026-04-11 13:12 -2.37193 109.30636 5983 ft 162 kts 271°
2026-04-11 13:13 -2.37151 109.29509 5980 ft 162 kts 271°
2026-04-11 13:13 -2.37109 109.28387 5984 ft 162 kts 271°
2026-04-11 13:13 -2.37068 109.27258 5983 ft 162 kts 271°
2026-04-11 13:13 -2.37024 109.26126 5981 ft 163 kts 271°
2026-04-11 13:14 -2.36982 109.24991 5983 ft 163 kts 271°
2026-04-11 13:14 -2.36940 109.23852 5980 ft 163 kts 270°
2026-04-11 13:14 -2.36898 109.22732 5979 ft 163 kts 271°
2026-04-11 13:14 -2.36855 109.21597 5980 ft 163 kts 271°
2026-04-11 13:15 -2.36813 109.20465 5984 ft 163 kts 271°
2026-04-11 13:15 -2.36771 109.19335 5982 ft 162 kts 271°
2026-04-11 13:15 -2.36729 109.18207 5985 ft 162 kts 271°
2026-04-11 13:15 -2.36686 109.17074 5983 ft 162 kts 271°
2026-04-11 13:16 -2.36644 109.15951 5985 ft 162 kts 271°
2026-04-11 13:16 -2.36602 109.14832 5989 ft 163 kts 270°
2026-04-11 13:16 -2.36560 109.13701 5986 ft 163 kts 271°
2026-04-11 13:16 -2.36517 109.12564 5986 ft 163 kts 271°
2026-04-11 13:17 -2.36474 109.11429 5984 ft 164 kts 271°
2026-04-11 13:17 -2.36432 109.10289 5984 ft 163 kts 271°
2026-04-11 13:17 -2.36389 109.09154 5986 ft 163 kts 271°
2026-04-11 13:17 -2.36347 109.08020 5987 ft 163 kts 270°
2026-04-11 13:18 -2.36304 109.06903 5988 ft 163 kts 271°
2026-04-11 13:18 -2.36262 109.05769 5987 ft 163 kts 270°
2026-04-11 13:18 -2.36220 109.04636 5985 ft 163 kts 271°
2026-04-11 13:18 -2.36177 109.03501 5985 ft 163 kts 271°
2026-04-11 13:19 -2.36134 109.02363 5986 ft 163 kts 271°
2026-04-11 13:19 -2.36092 109.01225 5986 ft 164 kts 271°
2026-04-11 13:19 -2.36049 109.00097 5985 ft 163 kts 271°
2026-04-11 13:19 -2.36007 108.98963 5990 ft 163 kts 271°
2026-04-11 13:20 -2.35964 108.97829 5990 ft 163 kts 271°
2026-04-11 13:20 -2.35922 108.96699 5988 ft 163 kts 271°
2026-04-11 13:20 -2.35879 108.95565 5988 ft 163 kts 271°
2026-04-11 13:20 -2.35836 108.94432 5989 ft 163 kts 271°
2026-04-11 13:21 -2.35793 108.93291 5990 ft 164 kts 271°
2026-04-11 13:21 -2.35751 108.92154 5987 ft 164 kts 271°
2026-04-11 13:21 -2.35708 108.91020 5989 ft 164 kts 271°
2026-04-11 13:21 -2.35666 108.89894 5988 ft 163 kts 271°
2026-04-11 13:22 -2.35623 108.88762 5988 ft 163 kts 271°
2026-04-11 13:22 -2.35581 108.87632 5988 ft 162 kts 271°
2026-04-11 13:22 -2.35538 108.86502 5987 ft 162 kts 270°
2026-04-11 13:22 -2.35496 108.85375 5991 ft 163 kts 271°
2026-04-11 13:23 -2.35453 108.84244 5989 ft 162 kts 271°
2026-04-11 13:23 -2.35410 108.83113 5992 ft 163 kts 271°
2026-04-11 13:23 -2.35367 108.81981 5991 ft 163 kts 271°
2026-04-11 13:23 -2.35325 108.80845 5988 ft 163 kts 271°
2026-04-11 13:24 -2.35283 108.79727 5987 ft 163 kts 271°
2026-04-11 13:24 -2.35240 108.78592 5992 ft 163 kts 271°
2026-04-11 13:24 -2.35197 108.77461 5986 ft 163 kts 271°
2026-04-11 13:24 -2.35154 108.76329 5989 ft 163 kts 271°
2026-04-11 13:25 -2.35112 108.75195 5993 ft 163 kts 271°
2026-04-11 13:25 -2.35069 108.74063 5991 ft 163 kts 271°
2026-04-11 13:25 -2.35026 108.72940 5987 ft 163 kts 271°
2026-04-11 13:25 -2.34983 108.71796 5990 ft 163 kts 271°
2026-04-11 13:26 -2.34941 108.70677 5994 ft 163 kts 271°
2026-04-11 13:26 -2.34912 108.69922 5992 ft 163 kts 271°
2026-04-11 13:26 -2.34870 108.68786 5993 ft 163 kts 271°
2026-04-11 13:26 -2.34827 108.67652 5990 ft 163 kts 271°
2026-04-11 13:27 -2.34784 108.66519 5990 ft 163 kts 271°
2026-04-11 13:27 -2.34741 108.65387 5987 ft 163 kts 271°
2026-04-11 13:27 -2.34698 108.64256 5989 ft 163 kts 271°
2026-04-11 13:27 -2.34656 108.63125 5990 ft 163 kts 270°
2026-04-11 13:28 -2.34613 108.61991 5994 ft 163 kts 271°
2026-04-11 13:28 -2.34570 108.60860 5993 ft 163 kts 271°
2026-04-11 13:28 -2.34526 108.59721 5990 ft 163 kts 271°
2026-04-11 13:28 -2.34484 108.58601 5988 ft 163 kts 271°
2026-04-11 13:29 -2.34441 108.57463 5990 ft 163 kts 271°
2026-04-11 13:29 -2.34398 108.56334 5989 ft 162 kts 271°
2026-04-11 13:29 -2.34356 108.55205 5992 ft 162 kts 271°
2026-04-11 13:29 -2.34313 108.54080 5992 ft 162 kts 271°
2026-04-11 13:30 -2.34271 108.52968 5989 ft 162 kts 271°
2026-04-11 13:30 -2.34228 108.51838 5991 ft 162 kts 271°
2026-04-11 13:30 -2.34185 108.50709 5990 ft 163 kts 271°
2026-04-11 13:30 -2.34142 108.49579 5995 ft 163 kts 271°
2026-04-11 13:31 -2.34099 108.48447 5993 ft 162 kts 271°
2026-04-11 13:31 -2.34057 108.47317 5994 ft 162 kts 271°
2026-04-11 13:31 -2.34014 108.46183 5993 ft 162 kts 271°
2026-04-11 13:31 -2.33971 108.45070 5990 ft 162 kts 271°
2026-04-11 13:32 -2.33929 108.43946 5990 ft 162 kts 271°
2026-04-11 13:32 -2.33886 108.42817 5990 ft 162 kts 271°
2026-04-11 13:32 -2.33843 108.41686 5992 ft 162 kts 271°
2026-04-11 13:32 -2.33800 108.40561 5995 ft 162 kts 271°
2026-04-11 13:33 -2.33757 108.39432 5994 ft 162 kts 271°
2026-04-11 13:33 -2.33714 108.38303 5993 ft 162 kts 271°
2026-04-11 13:33 -2.33671 108.37172 5994 ft 162 kts 271°
2026-04-11 13:33 -2.33629 108.36062 5991 ft 162 kts 271°
2026-04-11 13:34 -2.33586 108.34933 5991 ft 162 kts 271°
2026-04-11 13:34 -2.33543 108.33812 5991 ft 162 kts 271°
2026-04-11 13:34 -2.33501 108.32688 5990 ft 162 kts 271°
2026-04-11 13:34 -2.33458 108.31558 5996 ft 162 kts 271°
2026-04-11 13:35 -2.33415 108.30434 5991 ft 162 kts 271°
2026-04-11 13:35 -2.33372 108.29304 5993 ft 162 kts 271°
2026-04-11 13:35 -2.33329 108.28188 5994 ft 163 kts 271°
2026-04-11 13:35 -2.33286 108.27058 5995 ft 163 kts 271°
2026-04-11 13:36 -2.33243 108.25928 5991 ft 162 kts 271°
2026-04-11 13:36 -2.33200 108.24803 5993 ft 162 kts 271°
2026-04-11 13:36 -2.33158 108.23677 5992 ft 162 kts 271°
2026-04-11 13:36 -2.33115 108.22549 5993 ft 162 kts 271°
2026-04-11 13:37 -2.33072 108.21424 5992 ft 161 kts 271°
2026-04-11 13:37 -2.33029 108.20316 5993 ft 162 kts 271°
2026-04-11 13:37 -2.32986 108.19194 5994 ft 162 kts 271°
2026-04-11 13:37 -2.32944 108.18065 5992 ft 162 kts 271°
2026-04-11 13:38 -2.32900 108.16931 5995 ft 163 kts 271°
2026-04-11 13:38 -2.32857 108.15800 5991 ft 163 kts 271°
2026-04-11 13:38 -2.32814 108.14667 5993 ft 162 kts 271°
2026-04-11 13:38 -2.32771 108.13540 5993 ft 162 kts 271°
2026-04-11 13:39 -2.32728 108.12425 5993 ft 162 kts 271°
2026-04-11 13:39 -2.32685 108.11296 5995 ft 162 kts 271°
2026-04-11 13:39 -2.32642 108.10169 5994 ft 162 kts 271°
2026-04-11 13:39 -2.32600 108.09054 5993 ft 162 kts 271°
2026-04-11 13:40 -2.32556 108.07910 5994 ft 163 kts 271°
2026-04-11 13:40 -2.32513 108.06778 5993 ft 162 kts 271°
2026-04-11 13:40 -2.32470 108.05669 5994 ft 162 kts 271°
2026-04-11 13:40 -2.32427 108.04545 5995 ft 162 kts 271°
2026-04-11 13:41 -2.32384 108.03418 5996 ft 162 kts 271°
2026-04-11 13:41 -2.32341 108.02294 5996 ft 161 kts 271°
2026-04-11 13:41 -2.32298 108.01175 5995 ft 161 kts 271°
2026-04-11 13:41 -2.32255 108.00050 5992 ft 162 kts 271°
2026-04-11 13:42 -2.32212 107.98923 5991 ft 162 kts 271°
2026-04-11 13:42 -2.32169 107.97794 5992 ft 162 kts 271°
2026-04-11 13:42 -2.32126 107.96667 5995 ft 163 kts 271°
2026-04-11 13:42 -2.32082 107.95547 5993 ft 163 kts 271°
2026-04-11 13:43 -2.32039 107.94416 5993 ft 162 kts 271°
2026-04-11 13:43 -2.31996 107.93291 5995 ft 162 kts 271°
2026-04-11 13:43 -2.31953 107.92163 5994 ft 162 kts 271°
2026-04-11 13:43 -2.31910 107.91032 5991 ft 162 kts 271°
2026-04-11 13:44 -2.31867 107.89907 5992 ft 162 kts 271°
2026-04-11 13:44 -2.31823 107.88781 5992 ft 162 kts 271°
2026-04-11 13:44 -2.31781 107.87669 5993 ft 162 kts 271°
2026-04-11 13:44 -2.31737 107.86540 5993 ft 162 kts 271°
2026-04-11 13:45 -2.31694 107.85409 5994 ft 163 kts 271°
2026-04-11 13:45 -2.31650 107.84277 5994 ft 163 kts 271°
2026-04-11 13:45 -2.31607 107.83146 5993 ft 163 kts 271°
2026-04-11 13:45 -2.31564 107.82013 5995 ft 162 kts 271°
2026-04-11 13:46 -2.31520 107.80885 5997 ft 162 kts 271°
2026-04-11 13:46 -2.31477 107.79772 5995 ft 162 kts 271°
2026-04-11 13:46 -2.31434 107.78643 5995 ft 162 kts 271°
2026-04-11 13:46 -2.31391 107.77512 5992 ft 163 kts 271°
2026-04-11 13:47 -2.31347 107.76384 5994 ft 163 kts 271°
2026-04-11 13:47 -2.31304 107.75249 5993 ft 163 kts 271°
2026-04-11 13:47 -2.31260 107.74115 5993 ft 163 kts 271°
2026-04-11 13:47 -2.31216 107.72986 5993 ft 163 kts 271°
2026-04-11 13:48 -2.31173 107.71856 5992 ft 162 kts 271°
2026-04-11 13:48 -2.31130 107.70741 5993 ft 162 kts 271°
2026-04-11 13:48 -2.31086 107.69609 5993 ft 162 kts 271°
2026-04-11 13:48 -2.31043 107.68482 5994 ft 163 kts 271°
2026-04-11 13:49 -2.31000 107.67351 5992 ft 163 kts 271°
2026-04-11 13:49 -2.30956 107.66217 5996 ft 163 kts 271°
2026-04-11 13:49 -2.30912 107.65083 5993 ft 163 kts 271°
2026-04-11 13:49 -2.30869 107.63959 5994 ft 163 kts 271°
2026-04-11 13:50 -2.30825 107.62826 5993 ft 163 kts 271°
2026-04-11 13:50 -2.30781 107.61691 5992 ft 163 kts 271°
2026-04-11 13:50 -2.30737 107.60559 5993 ft 163 kts 271°
2026-04-11 13:50 -2.30694 107.59428 5994 ft 163 kts 271°
2026-04-11 13:51 -2.30651 107.58297 5992 ft 163 kts 271°
2026-04-11 13:51 -2.30607 107.57166 5993 ft 162 kts 271°
2026-04-11 13:51 -2.30563 107.56035 5994 ft 163 kts 271°
2026-04-11 13:51 -2.30520 107.54904 5990 ft 163 kts 271°
2026-04-11 13:52 -2.30476 107.53772 5991 ft 163 kts 271°
2026-04-11 13:52 -2.30432 107.52639 5992 ft 163 kts 271°
2026-04-11 13:52 -2.30388 107.51503 5993 ft 163 kts 271°
2026-04-11 13:52 -2.30345 107.50372 5993 ft 163 kts 271°
2026-04-11 13:53 -2.30301 107.49239 5993 ft 163 kts 271°
2026-04-11 13:53 -2.30258 107.48122 5992 ft 163 kts 271°
2026-04-11 13:53 -2.30214 107.46988 5992 ft 163 kts 271°
2026-04-11 13:53 -2.30170 107.45852 5992 ft 163 kts 271°
2026-04-11 13:54 -2.30126 107.44729 5994 ft 163 kts 271°
2026-04-11 13:54 -2.30082 107.43584 5993 ft 163 kts 271°
2026-04-11 13:54 -2.30038 107.42447 5991 ft 163 kts 271°
2026-04-11 13:54 -2.29994 107.41313 5993 ft 163 kts 271°
2026-04-11 13:55 -2.29951 107.40199 5993 ft 163 kts 271°
2026-04-11 13:55 -2.29907 107.39064 5990 ft 163 kts 271°
2026-04-11 13:55 -2.29864 107.37939 5988 ft 162 kts 271°
2026-04-11 13:55 -2.29820 107.36809 5994 ft 163 kts 271°
2026-04-11 13:56 -2.29776 107.35674 5995 ft 163 kts 271°
2026-04-11 13:56 -2.29732 107.34537 5997 ft 163 kts 271°
2026-04-11 13:56 -2.29689 107.33414 5995 ft 164 kts 271°
2026-04-11 13:56 -2.29644 107.32266 5995 ft 164 kts 271°
2026-04-11 13:57 -2.29600 107.31128 5993 ft 164 kts 271°
2026-04-11 13:57 -2.29557 107.30007 5988 ft 163 kts 271°
2026-04-11 13:57 -2.29513 107.28873 5994 ft 163 kts 271°
2026-04-11 13:57 -2.29468 107.27739 5995 ft 163 kts 271°
2026-04-11 13:58 -2.29425 107.26603 5995 ft 163 kts 271°
2026-04-11 13:58 -2.29380 107.25467 5996 ft 163 kts 271°
2026-04-11 13:58 -2.29336 107.24326 5997 ft 163 kts 271°
2026-04-11 13:58 -2.29292 107.23194 5992 ft 163 kts 271°
2026-04-11 13:59 -2.29249 107.22073 5994 ft 163 kts 271°
2026-04-11 13:59 -2.29204 107.20940 5991 ft 163 kts 271°
2026-04-11 13:59 -2.29161 107.19807 5990 ft 163 kts 271°
2026-04-11 13:59 -2.29117 107.18671 5995 ft 163 kts 271°
2026-04-11 14:00 -2.29072 107.17536 5995 ft 163 kts 271°
2026-04-11 14:00 -2.29029 107.16402 5993 ft 163 kts 270°
2026-04-11 14:00 -2.28940 107.14138 5990 ft 163 kts 270°
2026-04-11 14:01 -2.28896 107.13003 5988 ft 163 kts 271°
2026-04-11 14:01 -2.28852 107.11867 5990 ft 163 kts 271°
2026-04-11 14:01 -2.28808 107.10730 5988 ft 163 kts 271°
2026-04-11 14:01 -2.28764 107.09591 5993 ft 163 kts 271°
2026-04-11 14:02 -2.28720 107.08461 5996 ft 163 kts 271°
2026-04-11 14:02 -2.28675 107.07329 5995 ft 163 kts 271°
2026-04-11 14:02 -2.28632 107.06209 5993 ft 163 kts 271°
2026-04-11 14:02 -2.28587 107.05078 5994 ft 163 kts 271°
2026-04-11 14:03 -2.28543 107.03945 5995 ft 163 kts 271°
2026-04-11 14:03 -2.28499 107.02809 5997 ft 163 kts 271°
2026-04-11 14:03 -2.28455 107.01672 6000 ft 164 kts 271°
2026-04-11 14:03 -2.28410 107.00533 5997 ft 164 kts 271°
2026-04-11 14:04 -2.28366 106.99394 5996 ft 164 kts 271°
2026-04-11 14:04 -2.28322 106.98261 5992 ft 163 kts 271°
2026-04-11 14:04 -2.28278 106.97138 5995 ft 163 kts 271°
2026-04-11 14:04 -2.28234 106.96004 5994 ft 163 kts 271°
2026-04-11 14:05 -2.28190 106.94870 5995 ft 163 kts 271°
2026-04-11 14:05 -2.28145 106.93735 5997 ft 163 kts 271°
2026-04-11 14:05 -2.28102 106.92603 5995 ft 163 kts 271°
2026-04-11 14:05 -2.28057 106.91466 5995 ft 163 kts 271°
2026-04-11 14:06 -2.28012 106.90330 5995 ft 163 kts 271°
2026-04-11 14:06 -2.27968 106.89194 5997 ft 163 kts 271°
2026-04-11 14:06 -2.27924 106.88060 5994 ft 163 kts 271°
2026-04-11 14:06 -2.27880 106.86936 5998 ft 163 kts 271°
2026-04-11 14:07 -2.27836 106.85801 5992 ft 163 kts 271°
2026-04-11 14:07 -2.27792 106.84665 5996 ft 163 kts 271°
2026-04-11 14:07 -2.27747 106.83527 5999 ft 164 kts 271°
2026-04-11 14:07 -2.27702 106.82387 5993 ft 164 kts 271°
2026-04-11 14:08 -2.27658 106.81252 5994 ft 164 kts 271°
2026-04-11 14:08 -2.27613 106.80108 5996 ft 164 kts 271°
2026-04-11 14:08 -2.27569 106.78969 5994 ft 164 kts 271°
2026-04-11 14:08 -2.27524 106.77845 5997 ft 164 kts 271°
2026-04-11 14:09 -2.27480 106.76706 5997 ft 164 kts 271°
2026-04-11 14:09 -2.27435 106.75567 5997 ft 163 kts 271°
2026-04-11 14:09 -2.27391 106.74430 5995 ft 164 kts 271°
2026-04-11 14:09 -2.27346 106.73292 5992 ft 164 kts 271°
2026-04-11 14:10 -2.27302 106.72153 5997 ft 164 kts 271°
2026-04-11 14:10 -2.27257 106.71025 5997 ft 164 kts 271°
2026-04-11 14:10 -2.27213 106.69884 5994 ft 164 kts 271°
2026-04-11 14:10 -2.27168 106.68746 5997 ft 164 kts 271°
2026-04-11 14:11 -2.27123 106.67600 5997 ft 164 kts 271°
2026-04-11 14:11 -2.27078 106.66458 5997 ft 164 kts 271°
2026-04-11 14:11 -2.27049 106.65701 5997 ft 164 kts 271°
2026-04-11 14:11 -2.26989 106.64181 5998 ft 164 kts 271°
2026-04-11 14:12 -2.26945 106.63054 5997 ft 164 kts 271°
2026-04-11 14:12 -2.26900 106.61916 5997 ft 164 kts 271°
2026-04-11 14:12 -2.26871 106.61165 5998 ft 164 kts 271°
2026-04-11 14:12 -2.26825 106.60012 5994 ft 164 kts 271°
2026-04-11 14:13 -2.26781 106.58886 5991 ft 164 kts 271°
2026-04-11 14:13 -2.26736 106.57741 5995 ft 164 kts 271°
2026-04-11 14:13 -2.26692 106.56619 5994 ft 164 kts 271°
2026-04-11 14:13 -2.26648 106.55480 5997 ft 164 kts 271°
2026-04-11 14:14 -2.26603 106.54344 5999 ft 163 kts 271°
2026-04-11 14:14 -2.26558 106.53206 5997 ft 163 kts 271°
2026-04-11 14:14 -2.26514 106.52073 5998 ft 164 kts 271°
2026-04-11 14:14 -2.26469 106.50931 5998 ft 164 kts 271°
2026-04-11 14:15 -2.26424 106.49793 5996 ft 164 kts 271°
2026-04-11 14:15 -2.26379 106.48654 5998 ft 164 kts 271°
2026-04-11 14:15 -2.26334 106.47515 5998 ft 164 kts 271°
2026-04-11 14:15 -2.26290 106.46389 5999 ft 163 kts 271°
2026-04-11 14:16 -2.26245 106.45255 5997 ft 163 kts 271°
2026-04-11 14:16 -2.26201 106.44119 5999 ft 163 kts 271°
2026-04-11 14:16 -2.26155 106.42979 5996 ft 163 kts 271°
2026-04-11 14:16 -2.26111 106.41843 5998 ft 163 kts 271°
2026-04-11 14:17 -2.26066 106.40706 5997 ft 164 kts 271°
2026-04-11 14:17 -2.26021 106.39564 5947 ft 167 kts 271°
2026-04-11 14:17 -2.25974 106.38366 5723 ft 177 kts 271°
2026-04-11 14:17 -2.25925 106.37129 5481 ft 182 kts 271°
2026-04-11 14:18 -2.25876 106.35944 5261 ft 159 kts 271°
2026-04-11 14:18 -2.25834 106.34905 5078 ft 141 kts 271°
2026-04-11 14:18 -2.25796 106.33975 4917 ft 127 kts 271°
2026-04-11 14:18 -2.25761 106.33121 4761 ft 120 kts 271°
2026-04-11 14:19 -2.25730 106.32306 4614 ft 115 kts 271°
2026-04-11 14:19 -2.25702 106.31496 4462 ft 119 kts 270°
2026-04-11 14:19 -2.25672 106.30666 4309 ft 123 kts 271°
2026-04-11 14:19 -2.25639 106.29795 4145 ft 127 kts 271°
2026-04-11 14:20 -2.25603 106.28903 3972 ft 130 kts 271°
2026-04-11 14:20 -2.25567 106.27992 3795 ft 132 kts 271°
2026-04-11 14:20 -2.25530 106.27064 3616 ft 134 kts 271°
2026-04-11 14:20 -2.25492 106.26127 3435 ft 135 kts 271°
2026-04-11 14:21 -2.25454 106.25181 3251 ft 137 kts 271°
2026-04-11 14:21 -2.25417 106.24240 3068 ft 137 kts 271°
2026-04-11 14:21 -2.25379 106.23283 2885 ft 138 kts 271°
2026-04-11 14:21 -2.25341 106.22323 2697 ft 138 kts 271°
2026-04-11 14:22 -2.25303 106.21363 2504 ft 137 kts 271°
2026-04-11 14:22 -2.25265 106.20451 2253 ft 126 kts 270°
2026-04-11 14:22 -2.25231 106.19601 1998 ft 119 kts 271°
2026-04-11 14:22 -2.25198 106.18785 1737 ft 115 kts 270°
2026-04-11 14:23 -2.25168 106.18020 1516 ft 104 kts 271°
2026-04-11 14:23 -2.25137 106.17322 1323 ft 98 kts 271°
2026-04-11 14:23 -2.25065 106.16667 1130 ft 96 kts 292°
2026-04-11 14:23 -2.24633 106.16252 1080 ft 80 kts 334°
2026-04-11 14:24 -2.24055 106.16068 1051 ft 96 kts 345°
2026-04-11 14:24 -2.23405 106.15904 1120 ft 97 kts 347°
2026-04-11 14:24 -2.22743 106.15734 1183 ft 100 kts 345°
2026-04-11 14:24 -2.22481 106.15665 1172 ft 104 kts 345°
2026-04-11 14:25 -2.21993 106.15540 1142 ft 107 kts 345°
2026-04-11 14:25 -2.21349 106.15362 1105 ft 90 kts 344°
2026-04-11 14:25 -2.20770 106.15194 976 ft 87 kts 343°
2026-04-11 14:25 -2.20191 106.15021 828 ft 85 kts 342°
2026-04-11 14:26 -2.19626 106.14845 684 ft 85 kts 342°
2026-04-11 14:26 -2.19055 106.14669 527 ft 86 kts 344°
2026-04-11 14:26 -2.18488 106.14524 408 ft 82 kts 345°
2026-04-11 14:26 -2.17946 106.14374 308 ft 79 kts 343°
2026-04-11 14:27 -2.17425 106.14231 215 ft 79 kts 345°
2026-04-11 14:27 -2.16893 106.14087 122 ft 79 kts 345°
2026-04-11 14:27 -2.16470 106.13964 114 ft 29 kts 346°
2026-04-11 14:27 -2.16291 106.13916 113 ft 25 kts 345°
2026-04-11 14:28 -2.16127 106.13868 112 ft 24 kts 345°
2026-04-11 14:28 -2.15967 106.13827 112 ft 24 kts 347°
2026-04-11 14:28 -2.15804 106.13784 110 ft 25 kts 341°
2026-04-11 14:28 -2.15666 106.13749 113 ft 2 kts 22°
2026-04-11 14:29 -2.15649 106.13783 111 ft 10 kts 75°
2026-04-11 14:29 -2.15625 106.13877 108 ft 14 kts 74°
2026-04-11 14:29 -2.15599 106.13964 107 ft 11 kts 73°
2026-04-11 14:29 -2.15594 106.13987 107 ft 0 kts 78°